| time (UTC) | temp F | wind direction | speed MPH | gust MPH | rain 1hr in | rain 24hr in | rain mn in | humidity % | barometer mb |
| 20260502224313 | 80 | 180 | 7.0 | 8.0 | 0.00 | 0.00 | 0.00 | 1009.1 | |
| 20260502224213 | 80 | 202 | 4.0 | 9.0 | 0.00 | 0.00 | 0.00 | 1009.3 | |
| 20260502224113 | 80 | 180 | 6.0 | 9.0 | 0.00 | 0.00 | 0.00 | 1009.4 | |
| 20260502223713 | 81 | 225 | 5.0 | 8.0 | 0.00 | 0.00 | 0.00 | 1009.2 | |
| 20260502223613 | 80 | 247 | 5.0 | 7.0 | 0.00 | 0.00 | 0.00 | 1009.4 | |
| 20260502223513 | 80 | 225 | 4.0 | 7.0 | 0.00 | 0.00 | 0.00 | 1009.5 | |
| 20260502223413 | 80 | 202 | 3.0 | 6.0 | 0.00 | 0.00 | 0.00 | 1009.4 | |
| 20260502223013 | 81 | 135 | 3.0 | 4.0 | 0.00 | 0.00 | 0.00 | 1009.4 | |
| 20260502222913 | 81 | 202 | 2.0 | 6.0 | 0.00 | 0.00 | 0.00 | 1009.3 | |
| 20260502222213 | 81 | 225 | 7.0 | 12.0 | 0.00 | 0.00 | 0.00 | 1009.5 | |
| 20260502221814 | 81 | 225 | 3.0 | 6.0 | 0.00 | 0.00 | 0.00 | 1009.7 | |
| 20260502221713 | 81 | 157 | 4.0 | 6.0 | 0.00 | 0.00 | 0.00 | 1009.6 | |
| 20260502221313 | 81 | 225 | 5.0 | 7.0 | 0.00 | 0.00 | 0.00 | 1009.6 | |
| 20260502221213 | 82 | 202 | 5.0 | 7.0 | 0.00 | 0.00 | 0.00 | 1010.0 | |
| 20260502221113 | 81 | 225 | 2.0 | 3.0 | 0.00 | 0.00 | 0.00 | 1009.9 | |
| 20260502220413 | 82 | 225 | 1.0 | 3.0 | 0.00 | 0.00 | 0.00 | 1009.9 | |
| 20260502220013 | 82 | 180 | 3.0 | 5.0 | 0.00 | 0.00 | 0.00 | 1010.0 | |
| 20260502215913 | 81 | 180 | 2.0 | 4.0 | 0.00 | 0.00 | 0.00 | 1009.8 | |
| 20260502214313 | 80 | 202 | 4.0 | 9.0 | 0.00 | 0.00 | 0.00 | 1010.3 | |
| 20260502213913 | 80 | 202 | 4.0 | 6.0 | 0.00 | 0.00 | 0.00 | 1010.2 | |
| 20260502213813 | 80 | 157 | 5.0 | 8.0 | 0.00 | 0.00 | 0.00 | 1010.2 | |
| 20260502213413 | 80 | 225 | 3.0 | 5.0 | 0.00 | 0.00 | 0.00 | 1010.2 | |
| 20260502212713 | 80 | 112 | 2.0 | 3.0 | 0.00 | 0.00 | 0.00 | 1010.3 | |
| 20260502212613 | 80 | 225 | 3.0 | 6.0 | 0.00 | 0.00 | 0.00 | 1010.3 | |
| 20260502212513 | 80 | 180 | 3.0 | 4.0 | 0.00 | 0.00 | 0.00 | 1010.6 | |
| 20260502212413 | 80 | 225 | 5.0 | 7.0 | 0.00 | 0.00 | 0.00 | 1010.3 | |
| 20260502212013 | 80 | 180 | 4.0 | 6.0 | 0.00 | 0.00 | 0.00 | 1010.5 | |
| 20260502211914 | 79 | 157 | 2.0 | 3.0 | 0.00 | 0.00 | 0.00 | 1010.5 | |
| 20260502211213 | 80 | 225 | 2.0 | 3.0 | 0.00 | 0.00 | 0.00 | 1010.4 | |
| 20260502210513 | 79 | 157 | 4.0 | 7.0 | 0.00 | 0.00 | 0.00 | 1010.7 | |
| 20260502205813 | 79 | 180 | 1.0 | 2.0 | 0.00 | 0.00 | 0.00 | 1010.5 | |
| 20260502205713 | 80 | 180 | 2.0 | 4.0 | 0.00 | 0.00 | 0.00 | 1010.5 | |
| 20260502205613 | 80 | 202 | 2.0 | 2.0 | 0.00 | 0.00 | 0.00 | 1010.4 | |
| 20260502205214 | 79 | 202 | 2.0 | 4.0 | 0.00 | 0.00 | 0.00 | 1010.5 | |
| 20260502204813 | 79 | 202 | 3.0 | 6.0 | 0.00 | 0.00 | 0.00 | 1010.8 | |
| 20260502204113 | 79 | 135 | 3.0 | 6.0 | 0.00 | 0.00 | 0.00 | 1010.7 | |
| 20260502204013 | 79 | 225 | 2.0 | 3.0 | 0.00 | 0.00 | 0.00 | 1010.8 | |
| 20260502203913 | 79 | 180 | 3.0 | 6.0 | 0.00 | 0.00 | 0.00 | 1010.8 | |
| 20260502203213 | 78 | 202 | 2.0 | 3.0 | 0.00 | 0.00 | 0.00 | 1011.0 | |
| 20260502203113 | 78 | 225 | 2.0 | 4.0 | 0.00 | 0.00 | 0.00 | 1010.8 | |
| 20260502203013 | 78 | 225 | 2.0 | 3.0 | 0.00 | 0.00 | 0.00 | 1010.9 | |
| 20260502202913 | 78 | 157 | 1.0 | 3.0 | 0.00 | 0.00 | 0.00 | 1010.8 | |
| 20260502202513 | 77 | 180 | 2.0 | 4.0 | 0.00 | 0.00 | 0.00 | 1011.0 | |
| 20260502202413 | 76 | 157 | 3.0 | 6.0 | 0.00 | 0.00 | 0.00 | 1010.9 | |
| 20260502202013 | 77 | 225 | 4.0 | 7.0 | 0.00 | 0.00 | 0.00 | 1011.0 | |
| 20260502201613 | 77 | 202 | 2.0 | 4.0 | 0.00 | 0.00 | 0.00 | 1011.2 | |
| 20260502201213 | 76 | 157 | 1.0 | 2.0 | 0.00 | 0.00 | 0.00 | 1011.0 | |
| 20260502201113 | 76 | 135 | 1.0 | 2.0 | 0.00 | 0.00 | 0.00 | 1010.9 | |
| 20260502200714 | 76 | 67 | 1.0 | 2.0 | 0.00 | 0.00 | 0.00 | 1011.2 | |
| 20260502200613 | 76 | 225 | 2.0 | 3.0 | 0.00 | 0.00 | 0.00 | 1011.0 | |
| 20260502200513 | 76 | 225 | 4.0 | 7.0 | 0.00 | 0.00 | 0.00 | 1011.5 | |
| 20260502200113 | 75 | 337 | 2.0 | 4.0 | 0.00 | 0.00 | 0.00 | 1011.2 | |
| 20260502200013 | 76 | 247 | 4.0 | 5.0 | 0.00 | 0.00 | 0.00 | 1011.4 | |
| 20260502195013 | 75 | 292 | 2.0 | 5.0 | 0.00 | 0.00 | 0.00 | 1011.5 | |
| 20260502194313 | 73 | 67 | 3.0 | 8.0 | 0.00 | 0.00 | 0.00 | 1011.6 | |
| 20260502194214 | 73 | 225 | 3.0 | 5.0 | 0.00 | 0.00 | 0.00 | 1011.9 | |
| 20260502194113 | 73 | 315 | 4.0 | 5.0 | 0.00 | 0.00 | 0.00 | 1011.6 | |
| 20260502192513 | 72 | 157 | 2.0 | 3.0 | 0.00 | 0.00 | 0.00 | 1012.1 | |
| 20260502192113 | 72 | 180 | 5.0 | 7.0 | 0.00 | 0.00 | 0.00 | 1012.3 | |
| 20260502191713 | 72 | 225 | 5.0 | 9.0 | 0.00 | 0.00 | 0.00 | 1012.3 | |
| 20260502191313 | 72 | 202 | 4.0 | 7.0 | 0.00 | 0.00 | 0.00 | 1012.3 | |
| 20260502190313 | 72 | 225 | 2.0 | 3.0 | 0.00 | 0.00 | 0.00 | 1012.2 | |
| 20260502185913 | 71 | 180 | 2.0 | 4.0 | 0.00 | 0.00 | 0.00 | 1012.5 | |
| 20260502185513 | 71 | 202 | 1.0 | 2.0 | 0.00 | 0.00 | 0.00 | 1012.4 | |
| 20260502185413 | 71 | 247 | 0.0 | 1.0 | 0.00 | 0.00 | 0.00 | 1012.1 | |
| 20260502185313 | 71 | 135 | 0.0 | 1.0 | 0.00 | 0.00 | 0.00 | 1012.4 | |
| 20260502185213 | 71 | 180 | 1.0 | 2.0 | 0.00 | 0.00 | 0.00 | 1012.4 | |
| 20260502183613 | 70 | 135 | 2.0 | 4.0 | 0.00 | 0.00 | 0.00 | 1012.4 | |
| 20260502183513 | 70 | 135 | 2.0 | 3.0 | 0.00 | 0.00 | 0.00 | 1012.6 | |
| 20260502183413 | 71 | 247 | 2.0 | 4.0 | 0.00 | 0.00 | 0.00 | 1012.7 | |
| 20260502182713 | 70 | 135 | 2.0 | 3.0 | 0.00 | 0.00 | 0.00 | 1012.6 | |
| 20260502182613 | 70 | 135 | 1.0 | 2.0 | 0.00 | 0.00 | 0.00 | 1012.6 | |
| 20260502182513 | 70 | 225 | 1.0 | 2.0 | 0.00 | 0.00 | 0.00 | 1012.5 | |
| 20260502181513 | 68 | 112 | 2.0 | 4.0 | 0.00 | 0.00 | 0.00 | 1012.9 | |
| 20260502180513 | 68 | 247 | 2.0 | 3.0 | 0.00 | 0.00 | 0.00 | 1012.9 | |
| 20260502180413 | 68 | 247 | 3.0 | 4.0 | 0.00 | 0.00 | 0.00 | 1012.9 | |
| 20260502180313 | 68 | 180 | 5.0 | 7.0 | 0.00 | 0.00 | 0.00 | 1012.9 | |
| 20260502170513 | 64 | 157 | 2.0 | 3.0 | 0.00 | 0.00 | 0.00 | 1013.4 | |
| 20260502162513 | 63 | 202 | 2.0 | 3.0 | 0.00 | 0.00 | 0.00 | 1013.7 | |
| 20260502162413 | 63 | 202 | 3.0 | 4.0 | 0.00 | 0.00 | 0.00 | 1013.3 | |
| 20260502162013 | 64 | 180 | 1.0 | 3.0 | 0.00 | 0.00 | 0.00 | 1013.3 | |
| 20260502161913 | 64 | 202 | 2.0 | 4.0 | 0.00 | 0.00 | 0.00 | 1013.2 | |
| 20260502161813 | 64 | 202 | 2.0 | 4.0 | 0.00 | 0.00 | 0.00 | 1013.3 | |
| 20260502161413 | 65 | 180 | 1.0 | 2.0 | 0.00 | 0.00 | 0.00 | 1013.4 | |
| 20260502161313 | 65 | 202 | 2.0 | 2.0 | 0.00 | 0.00 | 0.00 | 1013.3 | |
| 20260502161213 | 65 | 225 | 1.0 | 2.0 | 0.00 | 0.00 | 0.00 | 1013.3 | |
| 20260502161114 | 65 | 292 | 1.0 | 2.0 | 0.00 | 0.00 | 0.00 | 1013.2 | |
| 20260502160713 | 63 | 112 | 1.0 | 1.0 | 0.00 | 0.00 | 0.00 | 1013.2 | |
| 20260502152216 | 57 | 180 | 0.0 | 1.0 | 0.00 | 0.00 | 0.00 | 1013.3 | |
| 20260502151813 | 57 | 292 | 0.0 | 0.0 | 0.00 | 0.00 | 0.00 | 1013.3 | |
| 20260502151414 | 57 | 247 | 0.0 | 0.0 | 0.00 | 0.00 | 0.00 | 1013.5 | |
| 20260502150714 | 56 | 225 | 0.0 | 1.0 | 0.00 | 0.00 | 0.00 | 1013.8 | |
| 20260502150317 | 56 | 202 | 1.0 | 2.0 | 0.00 | 0.00 | 0.00 | 1013.9 | |
| 20260502150213 | 56 | 180 | 0.0 | 1.0 | 0.00 | 0.00 | 0.00 | 1013.7 | |
| 20260502130513 | 54 | 202 | 2.0 | 3.0 | 0.00 | 0.00 | 0.00 | 1012.9 | |
| 20260502123713 | 53 | 202 | 1.0 | 2.0 | 0.00 | 0.00 | 0.00 | 1012.6 | |
| 20260502122414 | 53 | 202 | 1.0 | 2.0 | 0.00 | 0.00 | 0.00 | 1012.5 | |
| 20260502120813 | 51 | 0 | 0.0 | 0.0 | 0.00 | 0.00 | 0.00 | 1012.6 | |
| 20260502120714 | 51 | 0 | 0.0 | 0.0 | 0.00 | 0.00 | 0.00 | 1012.6 | |
| 20260502115413 | 50 | 0 | 0.0 | 0.0 | 0.00 | 0.00 | 0.00 | 1012.2 | |
| 20260502115313 | 50 | 0 | 0.0 | 0.0 | 0.00 | 0.00 | 0.00 | 1012.3 | |
| 20260502114314 | 49 | 0 | 0.0 | 0.0 | 0.00 | 0.00 | 0.00 | 1012.2 | |
| 20260502114213 | 49 | 0 | 0.0 | 0.0 | 0.00 | 0.00 | 0.00 | 1012.0 | |
| 20260502114113 | 49 | 0 | 0.0 | 0.0 | 0.00 | 0.00 | 0.00 | 1012.0 | |
| 20260502112213 | 50 | 0 | 0.0 | 0.0 | 0.00 | 0.00 | 0.00 | 1011.9 | |
| 20260502112113 | 50 | 0 | 0.0 | 0.0 | 0.00 | 0.00 | 0.00 | 1012.1 | |
| 20260502111713 | 50 | 0 | 0.0 | 0.0 | 0.00 | 0.00 | 0.00 | 1012.1 | |
| 20260502111013 | 50 | 0 | 0.0 | 0.0 | 0.00 | 0.00 | 0.00 | 1012.1 | |
| 20260502110914 | 50 | 0 | 0.0 | 0.0 | 0.00 | 0.00 | 0.00 | 1012.0 | |
| 20260502105914 | 50 | 0 | 0.0 | 0.0 | 0.00 | 0.00 | 0.00 | 1011.9 | |
| 20260502105813 | 50 | 0 | 0.0 | 0.0 | 0.00 | 0.00 | 0.00 | 1012.0 | |
| 20260502105713 | 51 | 0 | 0.0 | 0.0 | 0.00 | 0.00 | 0.00 | 1011.8 | |
| 20260502105613 | 51 | 0 | 0.0 | 0.0 | 0.00 | 0.00 | 0.00 | 1011.8 | |
| 20260502105213 | 51 | 0 | 0.0 | 0.0 | 0.00 | 0.00 | 0.00 | 1011.8 | |
| 20260502105113 | 51 | 0 | 0.0 | 0.0 | 0.00 | 0.00 | 0.00 | 1012.1 | |
| 20260502104713 | 51 | 0 | 0.0 | 0.0 | 0.00 | 0.00 | 0.00 | 1011.8 | |
| 20260502104613 | 51 | 0 | 0.0 | 0.0 | 0.00 | 0.00 | 0.00 | 1012.1 | |
| 20260502104213 | 51 | 0 | 1.0 | 1.0 | 0.00 | 0.00 | 0.00 | 1011.8 | |
| 20260502104113 | 51 | 0 | 0.0 | 1.0 | 0.00 | 0.00 | 0.00 | 1011.9 | |
| 20260502103114 | 51 | 0 | 0.0 | 0.0 | 0.00 | 0.00 | 0.00 | 1011.9 | |
| 20260502103013 | 51 | 0 | 0.0 | 0.0 | 0.00 | 0.00 | 0.00 | 1011.8 | |
| 20260502102913 | 51 | 0 | 0.0 | 0.0 | 0.00 | 0.00 | 0.00 | 1011.9 | |
| 20260502102213 | 51 | 0 | 0.0 | 0.0 | 0.00 | 0.00 | 0.00 | 1011.5 | |
| 20260502101513 | 51 | 0 | 0.0 | 1.0 | 0.00 | 0.00 | 0.00 | 1011.6 | |
| 20260502100813 | 51 | 337 | 0.0 | 1.0 | 0.00 | 0.00 | 0.00 | 1011.6 | |
| 20260502100713 | 50 | 337 | 0.0 | 0.0 | 0.00 | 0.00 | 0.00 | 1011.7 | |
| 20260502100613 | 50 | 315 | 0.0 | 0.0 | 0.00 | 0.00 | 0.00 | 1011.5 | |
| 20260502100513 | 50 | 315 | 0.0 | 0.0 | 0.00 | 0.00 | 0.00 | 1011.7 | |
| 20260502100413 | 50 | 315 | 0.0 | 0.0 | 0.00 | 0.00 | 0.00 | 1011.6 | |
| 20260502100313 | 50 | 315 | 0.0 | 0.0 | 0.00 | 0.00 | 0.00 | 1011.6 | |
| 20260502100213 | 50 | 315 | 0.0 | 0.0 | 0.00 | 0.00 | 0.00 | 1011.7 | |
| 20260502091213 | 51 | 337 | 0.0 | 1.0 | 0.00 | 0.00 | 0.00 | 1012.1 | |
| 20260502091113 | 51 | 292 | 0.0 | 1.0 | 0.00 | 0.00 | 0.00 | 1011.6 | |
| 20260502091013 | 51 | 292 | 1.0 | 1.0 | 0.00 | 0.00 | 0.00 | 1011.6 | |
| 20260502090913 | 51 | 315 | 0.0 | 0.0 | 0.00 | 0.00 | 0.00 | 1012.0 | |
| 20260502090813 | 51 | 0 | 0.0 | 0.0 | 0.00 | 0.00 | 0.00 | 1012.1 | |
| 20260502090413 | 51 | 315 | 0.0 | 0.0 | 0.00 | 0.00 | 0.00 | 1011.9 | |
| 20260502071213 | 56 | 202 | 0.0 | 0.0 | 0.00 | 0.00 | 0.00 | 1012.8 | |
| 20260502071114 | 56 | 202 | 1.0 | 2.0 | 0.00 | 0.00 | 0.00 | 1012.7 | |
| 20260502064914 | 55 | 225 | 1.0 | 2.0 | 0.00 | 0.00 | 0.00 | 1012.6 | |
| 20260502064813 | 55 | 225 | 1.0 | 2.0 | 0.00 | 0.00 | 0.00 | 1012.9 | |
| 20260502064413 | 55 | 202 | 0.0 | 0.0 | 0.00 | 0.00 | 0.00 | 1012.5 | |
| 20260502061914 | 57 | 247 | 0.0 | 0.0 | 0.00 | 0.00 | 0.00 | 1012.4 | |
| 20260502061813 | 57 | 247 | 1.0 | 1.0 | 0.00 | 0.00 | 0.00 | 1012.4 | |
| 20260502061413 | 57 | 202 | 1.0 | 1.0 | 0.00 | 0.00 | 0.00 | 1012.4 | |
| 20260502060713 | 57 | 225 | 1.0 | 1.0 | 0.00 | 0.00 | 0.00 | 1012.4 | |
| 20260502060313 | 57 | 180 | 1.0 | 2.0 | 0.00 | 0.00 | 0.00 | 1012.4 | |
| 20260502060213 | 57 | 225 | 1.0 | 1.0 | 0.00 | 0.00 | 0.00 | 1012.3 | |
| 20260502060113 | 57 | 225 | 1.0 | 1.0 | 0.00 | 0.00 | 0.00 | 1012.4 | |
| 20260502060013 | 57 | 202 | 1.0 | 1.0 | 0.00 | 0.00 | 0.00 | 1012.3 | |
| 20260502055913 | 57 | 225 | 1.0 | 2.0 | 0.00 | 0.00 | 0.00 | 1012.3 | |
| 20260502055513 | 57 | 202 | 1.0 | 2.0 | 0.00 | 0.00 | 0.00 | 1012.4 | |
| 20260502055413 | 57 | 225 | 0.0 | 1.0 | 0.00 | 0.00 | 0.00 | 1012.4 | |
| 20260502054713 | 58 | 202 | 1.0 | 2.0 | 0.00 | 0.00 | 0.00 | 1012.5 | |
| 20260502054313 | 58 | 157 | 1.0 | 2.0 | 0.00 | 0.00 | 0.00 | 1012.5 | |
| 20260502053313 | 58 | 202 | 0.0 | 1.0 | 0.00 | 0.00 | 0.00 | 1012.6 | |
| 20260502053213 | 58 | 202 | 0.0 | 1.0 | 0.00 | 0.00 | 0.00 | 1012.5 | |
| 20260502052513 | 58 | 202 | 1.0 | 1.0 | 0.00 | 0.00 | 0.00 | 1012.5 | |
| 20260502052413 | 58 | 180 | 1.0 | 2.0 | 0.00 | 0.00 | 0.00 | 1012.6 | |
| 20260502052013 | 58 | 180 | 0.0 | 0.0 | 0.00 | 0.00 | 0.00 | 1012.5 | |
| 20260502051913 | 58 | 180 | 0.0 | 0.0 | 0.00 | 0.00 | 0.00 | 1012.4 | |
| 20260502051813 | 58 | 157 | 0.0 | 1.0 | 0.00 | 0.00 | 0.00 | 1012.4 | |
| 20260502051713 | 58 | 157 | 0.0 | 2.0 | 0.00 | 0.00 | 0.00 | 1012.5 | |
| 20260502051013 | 58 | 225 | 0.0 | 1.0 | 0.00 | 0.00 | 0.00 | 1012.5 | |
| 20260502050313 | 59 | 225 | 0.0 | 2.0 | 0.00 | 0.00 | 0.00 | 1012.6 | |
| 20260502045613 | 59 | 225 | 2.0 | 3.0 | 0.00 | 0.00 | 0.00 | 1012.4 | |
| 20260502045513 | 59 | 180 | 1.0 | 2.0 | 0.00 | 0.00 | 0.00 | 1012.3 | |
| 20260502045113 | 59 | 225 | 2.0 | 2.0 | 0.00 | 0.00 | 0.00 | 1012.3 | |
| 20260502044713 | 59 | 202 | 1.0 | 1.0 | 0.00 | 0.00 | 0.00 | 1012.4 | |
| 20260502044614 | 59 | 180 | 1.0 | 2.0 | 0.00 | 0.00 | 0.00 | 1012.4 | |
| 20260502044213 | 59 | 157 | 0.0 | 1.0 | 0.00 | 0.00 | 0.00 | 1012.4 | |
| 20260502043814 | 59 | 225 | 3.0 | 3.0 | 0.00 | 0.00 | 0.00 | 1012.3 | |
| 20260502043413 | 59 | 202 | 1.0 | 1.0 | 0.00 | 0.00 | 0.00 | 1012.3 | |
| 20260502043314 | 59 | 225 | 1.0 | 2.0 | 0.00 | 0.00 | 0.00 | 1012.3 | |
| 20260502042613 | 59 | 202 | 0.0 | 1.0 | 0.00 | 0.00 | 0.00 | 1012.2 | |
| 20260502041913 | 60 | 225 | 2.0 | 4.0 | 0.00 | 0.00 | 0.00 | 1012.0 | |
| 20260502041513 | 60 | 180 | 2.0 | 3.0 | 0.00 | 0.00 | 0.00 | 1012.1 | |
| 20260502040513 | 60 | 180 | 0.0 | 1.0 | 0.00 | 0.00 | 0.00 | 1011.9 | |
| 20260502034413 | 61 | 180 | 2.0 | 4.0 | 0.00 | 0.00 | 0.00 | 1011.2 | |
| 20260502034013 | 61 | 202 | 3.0 | 4.0 | 0.00 | 0.00 | 0.00 | 1011.2 | |
| 20260502033313 | 62 | 180 | 1.0 | 3.0 | 0.00 | 0.00 | 0.00 | 1011.2 | |
| 20260502033213 | 62 | 180 | 2.0 | 4.0 | 0.00 | 0.00 | 0.00 | 1011.0 | |
| 20260502032813 | 62 | 202 | 2.0 | 2.0 | 0.00 | 0.00 | 0.00 | 1011.2 | |
| 20260502032713 | 62 | 157 | 3.0 | 4.0 | 0.00 | 0.00 | 0.00 | 1011.0 | |
| 20260502032313 | 62 | 225 | 3.0 | 4.0 | 0.00 | 0.00 | 0.00 | 1011.0 | |
| 20260502031613 | 63 | 202 | 3.0 | 5.0 | 0.00 | 0.00 | 0.00 | 1010.9 | |
| 20260502031513 | 63 | 180 | 3.0 | 4.0 | 0.00 | 0.00 | 0.00 | 1010.9 | |
| 20260502030513 | 63 | 180 | 2.0 | 4.0 | 0.00 | 0.00 | 0.00 | 1010.9 | |
| 20260502025213 | 64 | 202 | 2.0 | 4.0 | 0.00 | 0.00 | 0.00 | 1010.7 | |
| 20260502025113 | 65 | 202 | 2.0 | 2.0 | 0.00 | 0.00 | 0.00 | 1010.7 | |
| 20260502025013 | 65 | 180 | 2.0 | 2.0 | 0.00 | 0.00 | 0.00 | 1010.9 | |
| 20260502024613 | 65 | 157 | 2.0 | 4.0 | 0.00 | 0.00 | 0.00 | 1010.7 | |
| 20260502024514 | 65 | 180 | 1.0 | 2.0 | 0.00 | 0.00 | 0.00 | 1010.7 | |
| 20260502023514 | 66 | 157 | 4.0 | 4.0 | 0.00 | 0.00 | 0.00 | 1010.4 | |
| 20260502022513 | 66 | 225 | 2.0 | 4.0 | 0.00 | 0.00 | 0.00 | 1010.6 | |
| 20260502022113 | 67 | 202 | 2.0 | 3.0 | 0.00 | 0.00 | 0.00 | 1010.5 | |
| 20260502022013 | 67 | 202 | 2.0 | 4.0 | 0.00 | 0.00 | 0.00 | 1010.3 | |
| 20260502021613 | 67 | 225 | 2.0 | 5.0 | 0.00 | 0.00 | 0.00 | 1010.3 | |
| 20260502021513 | 67 | 247 | 3.0 | 5.0 | 0.00 | 0.00 | 0.00 | 1010.3 | |
| 20260502021113 | 67 | 202 | 2.0 | 4.0 | 0.00 | 0.00 | 0.00 | 1010.2 | |
| 20260502020413 | 67 | 202 | 3.0 | 5.0 | 0.00 | 0.00 | 0.00 | 1010.2 | |
| 20260502020313 | 67 | 225 | 4.0 | 6.0 | 0.00 | 0.00 | 0.00 | 1010.2 | |
| 20260502015013 | 68 | 225 | 4.0 | 6.0 | 0.00 | 0.00 | 0.00 | 1010.0 | |
| 20260502014313 | 69 | 202 | 3.0 | 4.0 | 0.00 | 0.00 | 0.00 | 1010.0 | |
| 20260502014213 | 69 | 202 | 4.0 | 5.0 | 0.00 | 0.00 | 0.00 | 1009.9 | |
| 20260502013813 | 69 | 202 | 4.0 | 6.0 | 0.00 | 0.00 | 0.00 | 1010.0 | |
| 20260502013714 | 69 | 247 | 3.0 | 4.0 | 0.00 | 0.00 | 0.00 | 1009.9 | |
| 20260502013613 | 69 | 247 | 3.0 | 4.0 | 0.00 | 0.00 | 0.00 | 1010.0 | |
| 20260502013513 | 69 | 225 | 5.0 | 8.0 | 0.00 | 0.00 | 0.00 | 1010.0 | |
| 20260502013413 | 69 | 225 | 2.0 | 4.0 | 0.00 | 0.00 | 0.00 | 1010.0 | |
| 20260502013013 | 69 | 225 | 3.0 | 5.0 | 0.00 | 0.00 | 0.00 | 1010.0 | |
| 20260502012014 | 70 | 180 | 3.0 | 4.0 | 0.00 | 0.00 | 0.00 | 1009.7 | |
| 20260502011613 | 71 | 225 | 3.0 | 5.0 | 0.00 | 0.00 | 0.00 | 1009.9 | |
| 20260502011513 | 71 | 202 | 4.0 | 6.0 | 0.00 | 0.00 | 0.00 | 1009.8 | |
| 20260502010514 | 71 | 202 | 5.0 | 6.0 | 0.00 | 0.00 | 0.00 | 1009.8 | |
| 20260502005213 | 72 | 202 | 3.0 | 7.0 | 0.00 | 0.00 | 0.00 | 1009.7 | |
| 20260502005113 | 72 | 225 | 4.0 | 6.0 | 0.00 | 0.00 | 0.00 | 1009.5 | |
| 20260502004714 | 72 | 202 | 2.0 | 3.0 | 0.00 | 0.00 | 0.00 | 1009.5 | |
| 20260502004614 | 72 | 157 | 3.0 | 4.0 | 0.00 | 0.00 | 0.00 | 1009.7 | |
| 20260502004213 | 72 | 180 | 5.0 | 7.0 | 0.00 | 0.00 | 0.00 | 1009.5 | |
| 20260502004113 | 72 | 225 | 5.0 | 8.0 | 0.00 | 0.00 | 0.00 | 1009.5 | |
| 20260502004013 | 73 | 225 | 5.0 | 7.0 | 0.00 | 0.00 | 0.00 | 1009.6 | |
| 20260502003913 | 73 | 225 | 2.0 | 3.0 | 0.00 | 0.00 | 0.00 | 1009.6 | |
| 20260502003813 | 73 | 180 | 2.0 | 3.0 | 0.00 | 0.00 | 0.00 | 1009.6 | |
| 20260502003713 | 73 | 180 | 1.0 | 2.0 | 0.00 | 0.00 | 0.00 | 1009.8 | |
| 20260502003613 | 73 | 270 | 2.0 | 3.0 | 0.00 | 0.00 | 0.00 | 1009.7 | |
| 20260502003513 | 73 | 180 | 6.0 | 9.0 | 0.00 | 0.00 | 0.00 | 1009.7 | |
| 20260502002514 | 74 | 202 | 4.0 | 8.0 | 0.00 | 0.00 | 0.00 | 1009.8 | |
| 20260502002114 | 74 | 225 | 6.0 | 9.0 | 0.00 | 0.00 | 0.00 | 1009.8 | |
| 20260502002013 | 74 | 202 | 4.0 | 7.0 | 0.00 | 0.00 | 0.00 | 1009.9 | |
| 20260502001914 | 74 | 225 | 6.0 | 9.0 | 0.00 | 0.00 | 0.00 | 1009.7 | |
| 20260502001813 | 74 | 225 | 3.0 | 5.0 | 0.00 | 0.00 | 0.00 | 1009.9 | |
| 20260502001713 | 75 | 225 | 5.0 | 9.0 | 0.00 | 0.00 | 0.00 | 1009.7 | |
| 20260502001613 | 75 | 180 | 4.0 | 8.0 | 0.00 | 0.00 | 0.00 | 1009.8 | |
| 20260502000913 | 75 | 225 | 6.0 | 8.0 | 0.00 | 0.00 | 0.00 | 1009.7 | |
| 20260502000813 | 75 | 225 | 3.0 | 8.0 | 0.00 | 0.00 | 0.00 | 1009.6 | |
| 20260502000113 | 76 | 202 | 4.0 | 9.0 | 0.00 | 0.00 | 0.00 | 1009.6 | |
| 20260501234513 | 77 | 202 | 6.0 | 10.0 | 0.00 | 0.00 | 0.00 | 1009.5 | |
| 20260501233513 | 79 | 225 | 2.0 | 4.0 | 0.00 | 0.00 | 0.00 | 1009.3 | |
| 20260501232813 | 79 | 157 | 2.0 | 4.0 | 0.00 | 0.00 | 0.00 | 1009.6 | |
| 20260501232413 | 79 | 180 | 2.0 | 4.0 | 0.00 | 0.00 | 0.00 | 1009.3 | |
| 20260501232313 | 79 | 135 | 2.0 | 5.0 | 0.00 | 0.00 | 0.00 | 1009.4 | |
| 20260501232213 | 79 | 202 | 4.0 | 7.0 | 0.00 | 0.00 | 0.00 | 1009.3 | |
| 20260501232113 | 79 | 202 | 5.0 | 7.0 | 0.00 | 0.00 | 0.00 | 1009.6 | |
| 20260501232013 | 79 | 225 | 4.0 | 8.0 | 0.00 | 0.00 | 0.00 | 1009.5 | |
| 20260501231313 | 80 | 315 | 5.0 | 9.0 | 0.00 | 0.00 | 0.00 | 1009.6 | |
| 20260501231213 | 80 | 225 | 4.0 | 8.0 | 0.00 | 0.00 | 0.00 | 1009.6 | |
| 20260501231113 | 80 | 202 | 5.0 | 7.0 | 0.00 | 0.00 | 0.00 | 1009.6 | |
| 20260501230713 | 81 | 225 | 7.0 | 10.0 | 0.00 | 0.00 | 0.00 | 1009.6 | |
| 20260501230613 | 81 | 202 | 6.0 | 8.0 | 0.00 | 0.00 | 0.00 | 1009.5 | |
| 20260501225313 | 82 | 225 | 5.0 | 7.0 | 0.00 | 0.00 | 0.00 | 1009.9 | |
| 20260501225213 | 82 | 270 | 2.0 | 3.0 | 0.00 | 0.00 | 0.00 | 1009.8 |